Lid_Strength_Index
2 3 3 4 3 3 3 3 3 3 2 2 1 1 1 1 2 4 6 5 6 1 1 3 4 5 5 6 6 7 11 11 10 11 9 8 8 8 7 7 7 6 7 6 4
2 2 2 3 3 3 2 3 3 3 3 2 2 1 1 2 4 6 2 2 4 0 4 5 6 6 7 7 7 8 11 10 9 8 9 8 8 7 8 8 7 7 7 5 4
1 1 1 1 2 2 2 2 2 3 3 3 3 2 2 2 7 8 4 0 1 2 5 4 5 6 8 7 8 9 11 9 9 8 8 8 9 8 8 8 7 7 6 5 4
1 1 1 1 1 2 2 1 2 2 2 3 3 3 2 5 11 9 2 1 -0 3 6 7 7 8 9 10 8 11 9 9 9 9 9 9 8 8 8 6 7 6 6 5 5
1 1 1 1 1 1 2 2 1 1 2 2 3 3 4 8 8 4 2 2 3 4 7 7 9 9 10 9 9 10 10 9 8 9 9 10 9 9 9 6 6 7 7 6 5
1 1 1 1 0 1 1 2 1 1 1 2 2 3 6 11 4 5 5 5 4 5 7 8 8 8 10 10 10 9 9 9 9 9 9 10 9 10 8 6 7 8 7 7 6
2 1 1 1 1 0 0 1 1 1 2 1 1 3 7 9 4 4 5 6 6 6 7 7 8 9 9 11 9 10 12 10 10 10 9 9 11 11 8 8 8 8 8 7 7
2 1 1 1 1 0 -0 0 1 1 1 1 1 4 9 4 4 5 5 5 5 5 6 6 7 8 10 10 11 12 12 14 11 10 10 10 12 8 7 8 8 8 8 8 7
1 1 1 1 1 0 0 -0 -0 0 1 1 4 5 10 3 6 5 4 6 5 6 6 7 8 9 10 12 13 13 15 14 12 10 11 11 12 8 8 9 8 8 8 8 7
1 1 1 1 1 0 0 -0 -1 0 2 3 4 9 7 8 5 4 4 5 6 7 9 9 10 12 12 13 17 15 15 14 14 12 12 12 12 9 9 9 8 8 7 7 7
1 1 1 1 0 -0 0 1 5 7 5 8 8 8 7 5 5 4 4 6 6 8 11 10 13 15 14 13 13 13 14 14 13 12 12 12 12 11 9 9 9 8 8 7 6
-0 0 -0 -0 -0 -1 -0 4 4 5 9 5 6 6 5 5 9 6 3 7 9 12 10 12 16 12 12 12 13 13 14 14 13 12 13 12 13 11 10 10 9 9 8 7 6
-0 -0 -1 -1 -1 -0 2 3 0 2 8 7 5 7 7 6 9 7 4 6 9 11 12 13 13 11 12 13 14 14 15 14 14 13 12 13 13 12 10 10 9 8 8 7 7
-1 -1 -1 -1 1 1 3 0 -0 2 12 10 8 7 7 6 9 5 4 5 8 11 11 11 9 12 13 14 13 15 12 12 13 14 16 13 17 13 12 11 11 10 9 8 7
-1 -1 -1 -1 1 3 1 -1 0 3 19 8 8 3 5 8 8 8 3 6 10 9 10 13 12 13 13 13 11 14 11 12 12 13 14 15 17 14 13 13 11 10 8 8 8
-1 -1 -1 0 0 0 -1 0 3 13 19 11 8 9 9 8 8 6 7 5 5 9 8 10 8 9 11 10 10 9 11 12 12 13 18 16 15 16 13 12 10 9 9 9 9
-1 -1 -1 -1 3 -1 -0 4 13 17 9 12 11 9 9 10 9 8 10 11 12 15 15 11 11 10 9 11 10 10 12 16 17 18 20 15 15 16 12 11 10 9 9 9 9
-1 -1 -1 -0 -1 -0 2 9 17 13 12 8 9 9 12 9 10 10 10 12 9 10 12 15 17 11 11 11 13 12 11 15 20 19 18 15 19 16 12 10 9 10 10 10 9
-1 0 1 0 -1 0 7 15 14 11 9 10 10 13 13 10 10 10 12 12 10 9 13 14 14 8 9 9 9 12 13 11 13 17 16 15 15 13 12 12 11 11 11 10 9
2 3 3 -1 -1 3 10 12 11 8 8 8 13 11 14 12 13 12 12 9 10 8 7 10 14 10 9 7 8 10 10 14 13 19 19 16 16 15 13 12 11 12 11 11 9
2 6 2 -0 1 7 13 12 10 8 7 9 11 12 12 13 12 12 11 9 8 8 8 9 11 12 10 11 12 11 12 11 11 13 17 18 16 11 11 10 10 10 11 10 9
4 10 2 1 9 9 11 10 8 8 7 9 8 10 11 11 13 12 12 9 7 7 11 9 12 15 14 9 8 9 11 11 15 16 14 15 14 11 11 11 11 10 10 9 9
7 7 2 3 12 11 10 10 8 9 9 9 10 9 9 11 13 12 10 7 7 8 10 9 13 17 16 13 10 12 10 10 10 11 15 17 15 12 12 11 10 9 9 9 9
6 10 8 7 7 9 11 11 11 8 8 8 9 8 10 11 10 12 11 9 8 8 7 8 11 14 17 13 11 14 12 10 11 15 14 13 13 12 11 10 9 9 8 8 8
6 9 8 12 10 9 9 10 11 12 9 9 10 11 11 13 12 13 11 10 9 8 8 9 15 13 11 12 11 11 12 11 13 12 14 12 12 9 10 9 8 8 8 9 9
10 10 10 9 9 9 10 12 11 11 10 11 12 10 11 12 10 13 10 10 11 9 10 9 14 13 15 11 12 13 11 11 11 11 11 11 11 8 8 9 9 8 8 8 8
6 6 6 9 10 11 11 11 10 10 10 9 9 10 11 10 8 7 7 7 8 10 11 12 13 14 17 13 13 17 12 11 11 10 10 13 9 8 10 9 8 8 8 7 7